Hourly Data Report for October 02, 2017

All times are specified in Local Standard Time (LST). Add 1 hour to adjust for Daylight Saving Time where and when it is observed.

SAINT JOHN A
NEW BRUNSWICK

45°18'58.000" N
65°53'24.000" W
108.80 m
8104901
71609
YSJ

Download Data

Hourly Data (October 2017)
Hourly Data Report for October 2, 2017
Temp Definition
°C
Dew Point Temp Definition
°C
Rel Hum Definition
%
Wind Dir Definition
10's deg

Wind Spd Definition
km/h
Visibility Definition
km
Stn Press Definition
kPa
Hmdx Definition


Wind Chill Definition


Weather Definition


TIME
00:00 Legend Double Dagger 9.3 4.2 70 33 15 24.1 100.73     LegendNANA
01:00 Legend Double Dagger 10.2 4.4 67 35 13 24.1 100.77     LegendNANA
02:00 Legend Double Dagger 9.9 4.5 69 35 18 24.1 100.78     Clear
03:00 Legend Double Dagger 9.3 4.8 73 35 16 24.1 100.79     LegendNANA
04:00 Legend Double Dagger 7.2 4.4 82 36 8 24.1 100.87     LegendNANA
05:00 Legend Double Dagger 5.0 3.8 92 1 4 24.1 100.95     Clear
06:00 Legend Double Dagger 3.3 2.6 95 36 1 24.1 101.04     LegendNANA
07:00 Legend Double Dagger 7.9 4.9 81 35 13 24.1 101.15     LegendNANA
08:00 Legend Double Dagger 9.9 5.2 73 1 21 24.1 101.24     Mainly Clear
09:00 Legend Double Dagger 10.8 4.4 65 2 26 24.1 101.33     LegendNANA
10:00 Legend Double Dagger 12.0 3.1 54 1 22 24.1 101.39     LegendNANA
11:00 Legend Double Dagger 12.6 1.9 48 1 26 24.1 101.43     Mainly Clear
12:00 Legend Double Dagger 13.2 1.0 43 1 25 24.1 101.44     LegendNANA
13:00 Legend Double Dagger 13.4 -1.3 36 35 26 24.1 101.48     LegendNANA
14:00 Legend Double Dagger 13.6 0.2 39 2 25 24.1 101.53     Mainly Clear
15:00 Legend Double Dagger 13.8 0.0 39 3 23 24.1 101.58     LegendNANA
16:00 Legend Double Dagger 13.5 0.2 40 1 17 24.1 101.61     LegendNANA
17:00 Legend Double Dagger 12.6 -0.2 41 36 16 24.1 101.71     Clear
18:00 Legend Double Dagger 9.7 0.5 53 35 7 24.1 101.81     LegendNANA
19:00 Legend Double Dagger 5.4 1.1 74 16 3 24.1 101.91     LegendNANA
20:00 Legend Double Dagger 2.8 0.3 83 8 4 24.1 101.98     Clear
21:00 Legend Double Dagger 2.1 0.5 89 3 5 24.1 102.06     LegendNANA
22:00 Legend Double Dagger 0.4 -1.0 90 17 3 24.1 102.11     LegendNANA
23:00 Legend Double Dagger -1.8 -2.5 95 36 2 24.1 102.15   -3 Clear

Notes on Data Quality.

Legend

  • E = Estimated
  • M = Missing
  • NA = Not Available
  • ‡ = Partner data that is not subject to review by the National Climate Archives
Date modified: